Wind_Speed
16 17 19 22 23 25 26 28 29 31 33 35 36 38 39 39 39 38 37 36 35 34 34 33 32 31 30 29 28 27 26 25 24 22 21 19 18 16 16 16 16 17 19
12 14 16 17 19 21 22 24 26 28 30 32 34 36 38 40 41 42 42 42 41 40 38 37 36 35 35 34 33 32 30 29 28 27 25 23 21 20 19 17 17 17 18
11 13 14 16 17 19 20 22 24 25 27 29 31 33 35 38 40 41 43 44 45 44 44 42 41 40 39 38 37 36 35 33 32 31 29 27 25 24 22 20 19 19 18
13 14 16 17 19 21 22 24 25 26 28 30 31 33 35 36 38 40 42 43 45 46 47 47 46 45 43 42 41 40 39 38 37 35 34 32 30 28 26 24 22 21 20
15 16 18 20 22 23 25 26 28 29 30 32 33 34 36 37 38 40 41 43 44 45 47 48 49 49 48 47 46 45 44 42 41 40 38 36 34 32 30 28 26 25 23
18 20 23 25 27 29 30 32 33 35 36 37 38 39 39 40 41 42 43 44 45 46 47 48 49 50 50 50 49 49 48 47 46 44 43 41 39 37 35 33 30 29 27
23 26 28 30 32 34 36 37 39 40 41 42 43 44 45 45 46 46 47 47 47 48 48 49 50 51 51 52 52 52 51 51 50 48 47 45 43 42 40 37 35 33 31
28 31 33 35 37 39 40 42 44 46 47 48 49 50 51 52 52 52 52 52 52 52 52 52 52 52 53 53 53 53 53 53 52 52 51 49 47 46 44 42 39 37 35
32 34 37 39 41 44 46 48 50 52 54 55 57 58 58 59 59 59 59 59 58 57 57 56 56 55 55 55 55 55 55 55 55 54 54 52 51 50 49 47 44 42 39
36 38 41 43 46 49 52 55 57 59 61 63 65 66 66 67 67 67 67 66 65 64 63 62 61 60 59 59 58 58 58 57 57 56 55 55 54 53 52 51 49 46 44
40 43 46 49 52 55 57 60 63 65 68 70 71 73 73 74 74 74 74 73 72 71 69 68 66 65 64 63 62 61 60 60 59 58 57 57 56 55 55 55 53 51 48
44 47 50 53 56 59 62 64 67 69 72 74 76 77 78 79 79 79 79 79 78 77 76 74 72 70 69 68 67 65 64 63 62 61 60 59 58 57 57 57 56 54 52
48 51 54 57 61 63 66 69 71 74 76 78 80 81 82 83 84 84 84 84 83 82 81 79 77 75 74 72 71 70 68 66 65 64 63 62 60 59 58 59 58 57 55
52 56 59 61 64 67 70 73 76 78 81 83 84 85 87 87 88 88 88 89 88 87 85 84 82 80 78 77 75 74 73 71 69 67 66 65 63 62 61 60 60 59 57
55 58 61 64 68 71 74 77 79 82 84 86 87 88 90 91 91 91 91 90 90 90 89 87 86 84 82 81 79 78 77 75 73 71 69 68 67 65 64 63 62 61 60
57 61 64 68 72 75 78 81 83 85 87 88 89 89 89 88 87 86 84 83 82 83 84 84 84 84 84 84 83 82 81 79 77 75 73 71 70 69 68 66 65 64 63
61 65 69 73 76 80 82 85 87 88 89 88 86 84 81 79 77 76 74 73 72 72 73 75 78 80 81 83 84 85 85 83 81 79 76 75 73 72 71 70 69 68 66
66 70 74 77 80 83 85 87 88 88 86 82 79 75 72 70 68 67 65 64 64 64 65 66 68 72 75 78 82 84 86 86 84 83 81 78 77 75 73 73 72 71 69
71 75 78 81 83 85 87 87 86 83 80 76 72 69 66 64 63 61 61 60 60 60 61 62 63 65 69 73 77 81 84 87 87 86 85 83 80 78 77 75 75 74 73
75 78 81 83 85 86 85 83 79 75 72 69 67 64 61 59 58 57 56 56 57 58 59 61 61 62 64 66 70 75 80 84 87 89 88 87 85 82 80 78 77 76 74
78 81 83 84 85 85 82 78 73 69 67 64 63 61 59 57 56 55 53 53 53 54 56 58 60 61 62 63 64 67 72 79 84 88 90 90 88 86 84 81 79 78 76
80 82 83 85 85 82 78 74 70 67 65 63 61 59 58 56 54 52 50 49 49 51 53 55 58 60 61 62 62 63 66 71 78 84 89 91 91 90 88 85 82 80 77
80 82 83 84 82 78 74 70 66 64 62 60 58 56 54 52 50 48 46 45 45 46 48 51 54 57 59 61 62 62 63 65 70 77 84 89 92 92 91 89 86 82 80
80 82 83 81 78 75 71 68 66 64 61 59 56 53 51 48 46 44 43 42 42 42 43 45 49 53 56 59 61 62 63 62 64 69 78 85 90 93 93 92 90 87 84
80 81 81 78 75 72 69 67 65 64 61 58 55 51 48 45 44 42 40 39 39 38 39 41 43 47 52 56 59 61 63 62 62 64 69 78 86 91 94 94 93 91 88
79 80 78 75 72 69 67 66 64 63 60 56 53 49 45 43 41 40 39 37 37 36 36 37 39 42 46 52 55 59 62 63 62 62 63 69 79 87 92 95 95 94 92
Wind_Direction
287 286 284 284 284 283 283 282 280 278 277 275 273 271 269 267 265 263 261 258 256 254 253 252 252 252 251 250 249 248 247 246 244 242 239 236 234 231 229 226 224 223 222
298 294 291 289 288 286 285 284 282 280 278 276 275 273 271 269 267 265 263 260 258 256 254 253 252 252 251 250 249 248 246 245 244 242 239 236 234 231 230 228 226 224 223
304 300 296 293 291 289 287 285 284 283 281 280 278 276 274 272 270 268 265 263 261 258 256 254 253 252 251 251 250 248 246 245 243 241 239 237 235 233 231 229 227 226 224
303 301 299 297 295 293 292 290 289 287 286 284 282 280 278 275 273 271 268 266 263 260 258 256 254 253 251 251 250 249 247 245 243 242 240 238 236 235 233 230 228 227 225
312 310 308 306 304 303 301 300 298 296 294 291 289 286 284 281 278 275 272 269 266 263 260 257 255 253 252 250 249 248 247 246 244 242 240 238 237 236 235 232 229 228 227
318 316 313 311 309 307 305 303 301 300 298 295 293 291 288 286 283 280 277 274 270 267 263 259 256 254 252 250 249 248 247 246 244 242 241 239 237 236 236 234 232 230 229
317 314 312 310 308 306 304 302 300 298 296 294 292 291 289 287 284 282 279 277 274 271 267 264 260 256 253 251 249 247 246 245 244 243 241 239 238 237 236 236 234 232 231
315 313 310 308 306 304 302 300 298 296 294 293 291 290 288 286 284 282 280 277 275 273 270 267 264 260 256 252 250 247 246 245 244 243 241 239 238 237 237 236 235 233 232
313 311 309 307 305 304 302 300 299 297 295 293 292 290 288 286 284 282 280 278 275 273 271 268 265 262 259 255 252 249 246 244 243 242 241 240 238 237 237 237 236 235 233
312 310 309 307 306 304 303 302 300 298 296 295 293 291 289 287 285 283 280 278 275 273 271 268 266 263 261 258 255 251 248 245 242 241 240 240 238 237 237 237 236 236 234
312 311 309 308 306 305 303 301 300 298 296 294 292 291 289 287 285 283 280 278 276 273 271 268 265 263 260 258 256 253 250 246 243 241 239 239 238 236 236 236 236 236 235
311 310 309 307 305 303 302 300 298 297 295 293 292 290 288 286 283 281 279 277 275 273 270 267 264 261 259 257 255 253 250 248 245 242 239 238 237 236 235 236 236 236 235
311 310 308 307 305 303 302 300 299 297 295 293 291 289 287 285 283 281 279 276 274 272 269 266 264 260 258 255 253 251 249 248 246 243 240 237 236 235 235 235 235 235 235
311 310 308 307 306 304 303 301 299 298 296 294 292 290 287 285 282 280 278 275 273 270 267 265 262 259 256 253 251 249 247 246 245 243 240 238 236 234 234 234 234 234 234
311 310 309 308 307 305 304 303 301 300 298 296 294 291 289 286 284 281 279 276 273 269 266 263 260 258 254 251 249 246 245 243 242 241 240 238 235 234 233 233 233 233 232
312 311 311 310 309 308 307 306 304 303 301 299 297 294 292 289 286 283 280 277 273 270 266 263 259 256 253 249 247 244 242 241 240 239 238 237 235 233 232 232 232 232 232
314 314 314 313 312 312 311 309 308 306 304 302 300 297 295 291 288 284 280 276 272 269 265 261 257 253 250 247 244 242 240 239 237 236 236 235 234 232 231 231 231 231 231
318 318 317 317 316 315 314 312 310 308 307 305 303 300 297 293 289 285 280 276 271 266 262 259 255 251 248 244 242 240 239 237 235 234 233 233 232 231 230 230 230 231 231
321 321 320 319 318 317 316 314 312 311 310 308 305 302 299 295 291 287 282 276 271 265 261 257 254 250 247 243 240 237 236 235 234 232 231 230 230 230 229 229 229 230 231
324 323 322 321 320 318 317 316 315 314 312 310 308 305 302 298 294 290 284 279 272 266 261 256 252 249 247 243 240 237 234 233 232 231 230 229 228 228 228 227 228 229 230
326 324 323 322 321 319 318 318 317 315 314 312 310 308 305 302 298 293 288 281 274 268 262 257 252 249 246 243 240 237 235 232 230 229 228 227 227 226 226 226 226 228 229
326 325 324 323 322 321 321 321 320 319 318 316 315 312 309 306 302 297 292 285 278 270 265 259 253 248 245 243 240 237 235 233 230 228 227 226 226 225 225 224 225 226 226
327 325 325 324 324 324 324 323 323 322 321 319 317 314 311 308 304 300 295 290 283 275 268 262 255 249 245 242 240 237 234 233 232 229 227 225 224 224 224 223 223 223 224
327 327 326 326 326 326 326 326 325 324 323 322 320 318 315 313 309 305 300 295 289 282 273 266 259 252 246 242 240 237 234 232 231 230 228 225 224 223 223 223 222 222 223
329 328 328 328 328 328 328 328 328 327 326 326 324 322 319 316 313 310 306 301 295 289 281 272 264 256 248 243 239 237 234 232 230 229 229 227 224 223 222 222 222 222 222
330 330 330 330 330 330 330 330 330 330 329 329 327 325 323 319 316 312 309 306 301 294 287 279 270 261 252 245 240 237 234 232 230 229 228 228 226 223 222 221 221 221 221
Height
5877 5876 5874 5873 5871 5870 5869 5868 5866 5865 5864 5863 5862 5862 5861 5860 5860 5860 5860 5859 5859 5859 5858 5858 5858 5858 5858 5859 5859 5860 5860 5861 5862 5862 5862 5863 5863 5864 5864 5865 5865 5866 5867
5874 5872 5871 5869 5868 5866 5864 5863 5861 5860 5858 5857 5856 5855 5854 5853 5853 5852 5852 5852 5852 5852 5852 5852 5852 5852 5852 5853 5853 5854 5855 5856 5857 5858 5858 5859 5860 5860 5861 5861 5862 5863 5864
5871 5870 5868 5866 5864 5862 5861 5859 5857 5855 5853 5851 5849 5848 5847 5845 5844 5844 5844 5844 5844 5844 5844 5844 5845 5845 5845 5846 5847 5848 5849 5850 5851 5852 5853 5854 5855 5856 5857 5858 5859 5860 5861
5869 5867 5865 5863 5861 5859 5857 5855 5853 5851 5848 5846 5844 5842 5840 5839 5837 5836 5835 5834 5834 5834 5835 5835 5836 5837 5837 5838 5839 5840 5841 5843 5844 5846 5847 5849 5850 5851 5852 5853 5855 5856 5857
5867 5865 5862 5860 5857 5855 5853 5850 5848 5846 5843 5841 5839 5836 5834 5832 5830 5828 5827 5825 5825 5824 5824 5825 5826 5827 5828 5829 5830 5832 5833 5835 5836 5838 5840 5842 5844 5846 5847 5848 5850 5851 5853
5865 5862 5859 5856 5854 5851 5848 5845 5842 5840 5837 5834 5832 5829 5827 5825 5823 5821 5819 5817 5816 5815 5814 5814 5815 5816 5817 5819 5820 5822 5824 5825 5827 5830 5832 5835 5837 5839 5841 5843 5845 5846 5848
5862 5859 5856 5852 5849 5845 5842 5839 5835 5832 5829 5826 5823 5820 5818 5815 5813 5811 5809 5807 5806 5805 5804 5804 5804 5805 5806 5807 5809 5811 5813 5815 5818 5820 5823 5827 5829 5831 5834 5836 5838 5841 5842
5858 5855 5851 5847 5843 5839 5835 5831 5827 5823 5820 5816 5813 5810 5807 5804 5802 5799 5798 5796 5794 5793 5793 5793 5793 5793 5794 5795 5796 5799 5801 5804 5807 5810 5814 5817 5820 5823 5826 5828 5831 5834 5836
5853 5849 5845 5840 5835 5831 5826 5822 5817 5813 5808 5804 5801 5797 5794 5791 5788 5785 5783 5781 5781 5780 5780 5780 5780 5780 5781 5782 5784 5786 5789 5792 5795 5799 5803 5807 5810 5814 5816 5819 5822 5826 5829
5847 5842 5837 5832 5827 5822 5816 5810 5805 5800 5795 5790 5786 5782 5779 5775 5771 5769 5766 5765 5764 5764 5764 5764 5765 5766 5767 5768 5770 5773 5775 5778 5782 5786 5790 5795 5799 5803 5806 5810 5813 5817 5821
5839 5834 5829 5823 5817 5811 5805 5799 5793 5786 5780 5775 5770 5766 5761 5757 5753 5749 5746 5745 5744 5744 5745 5746 5747 5748 5751 5753 5755 5758 5761 5764 5768 5773 5778 5782 5787 5792 5796 5799 5803 5807 5811
5832 5826 5820 5814 5808 5801 5794 5787 5780 5772 5765 5759 5753 5748 5743 5737 5733 5729 5725 5723 5722 5722 5723 5725 5726 5729 5732 5735 5738 5741 5745 5750 5754 5759 5764 5768 5773 5779 5784 5788 5792 5796 5801
5824 5818 5811 5803 5796 5788 5780 5772 5764 5756 5748 5740 5733 5727 5721 5715 5710 5706 5702 5699 5698 5698 5699 5701 5703 5706 5710 5714 5718 5723 5728 5733 5738 5743 5749 5754 5759 5765 5771 5776 5780 5785 5790
5814 5807 5800 5791 5783 5774 5764 5755 5746 5737 5728 5719 5711 5704 5697 5690 5685 5680 5676 5673 5672 5672 5672 5674 5677 5681 5686 5691 5696 5702 5708 5714 5720 5726 5733 5739 5745 5751 5757 5763 5768 5773 5778
5805 5796 5788 5778 5768 5758 5748 5737 5726 5716 5705 5695 5686 5677 5669 5662 5656 5651 5647 5643 5642 5642 5643 5646 5649 5654 5660 5666 5672 5679 5686 5693 5701 5708 5716 5722 5729 5736 5742 5749 5755 5761 5766
5794 5785 5775 5764 5752 5741 5729 5717 5704 5692 5680 5669 5658 5648 5640 5632 5626 5621 5617 5613 5612 5611 5612 5615 5620 5626 5632 5639 5647 5655 5663 5671 5680 5688 5697 5704 5712 5720 5727 5733 5740 5747 5753
5782 5771 5760 5748 5735 5721 5707 5694 5680 5667 5654 5642 5632 5621 5612 5604 5598 5593 5590 5587 5585 5584 5584 5587 5591 5597 5603 5611 5620 5628 5638 5648 5658 5667 5676 5685 5693 5702 5710 5717 5724 5731 5739
5768 5757 5744 5730 5716 5701 5686 5671 5657 5643 5630 5618 5607 5597 5588 5581 5574 5569 5566 5563 5561 5560 5560 5562 5565 5570 5576 5583 5593 5602 5612 5624 5634 5644 5653 5663 5673 5683 5692 5700 5708 5715 5723
5754 5741 5727 5712 5698 5683 5667 5651 5635 5621 5608 5596 5585 5576 5568 5560 5553 5548 5544 5542 5540 5539 5539 5540 5543 5547 5552 5558 5567 5576 5587 5598 5608 5619 5630 5641 5652 5663 5673 5683 5691 5699 5707
5738 5724 5710 5695 5681 5666 5650 5634 5618 5603 5590 5578 5567 5557 5549 5541 5534 5529 5524 5521 5519 5518 5518 5520 5523 5527 5531 5537 5544 5553 5562 5571 5582 5594 5607 5618 5630 5642 5654 5665 5674 5683 5691
5724 5709 5695 5680 5664 5649 5634 5619 5605 5591 5577 5564 5552 5542 5533 5524 5517 5511 5506 5502 5500 5498 5498 5500 5503 5507 5512 5516 5524 5532 5540 5547 5557 5570 5582 5595 5608 5621 5633 5645 5656 5666 5675
5710 5695 5679 5663 5647 5631 5616 5602 5588 5574 5561 5549 5537 5526 5517 5508 5500 5494 5489 5485 5482 5480 5480 5480 5483 5488 5492 5497 5504 5512 5520 5527 5536 5547 5558 5571 5585 5599 5612 5625 5637 5648 5659
5697 5681 5665 5648 5631 5616 5601 5588 5575 5562 5549 5537 5526 5514 5503 5494 5486 5479 5474 5469 5466 5463 5463 5463 5464 5468 5474 5478 5484 5492 5500 5508 5517 5526 5536 5548 5562 5577 5591 5605 5618 5630 5642
5685 5667 5650 5633 5617 5602 5588 5575 5562 5550 5538 5525 5513 5502 5491 5481 5474 5467 5461 5456 5452 5449 5447 5447 5447 5450 5455 5460 5466 5473 5481 5489 5498 5507 5515 5527 5540 5555 5570 5584 5598 5611 5623
5672 5655 5637 5620 5604 5589 5575 5562 5549 5536 5524 5512 5501 5490 5480 5471 5463 5456 5450 5444 5440 5436 5433 5432 5432 5433 5436 5442 5448 5454 5463 5471 5479 5488 5497 5507 5520 5534 5549 5563 5577 5591 5604
5660 5643 5626 5609 5594 5579 5565 5551 5538 5526 5513 5502 5491 5481 5471 5462 5454 5446 5440 5434 5429 5424 5421 5419 5418 5418 5420 5424 5430 5436 5444 5453 5461 5471 5481 5489 5500 5513 5528 5542 5555 5570 5584